User: anonymous   Login
Location: Unspecified
(0.0000°N, 0.0000°E)
Time: 07:52:42
(UTC+00:00)
Language:

NAVSTAR 64 (USA 206) - Orbit

View from above orbital plane
View from above orbital plane
View from above satellite
View from above satellite

Ground track
Ground track

The orbit data is extracted from the following two-line orbital elements,

1 35752U 09043A   15029.31776855  .00000058  00000-0  00000+0 0   451
2 35752 054.2451 194.7800 0039610 020.9230 244.1282 02.00552423 39973
Epoch (UTC): 29 January 2015 07:37:35
Eccentricity: 0.0039610
inclination: 54.2451°
perigee height: 20078 km
apogee height: 20288 km
right ascension of ascending node: 194.7800°
argument of perigee: 20.9230°
revolutions per day: 2.00552423
mean anomaly at epoch: 244.1282°
orbit number at epoch: 3997

The dashed part of the orbit path shows where the satellite is in the earth's shadow,  

DLR